This demonstration page uses our WeatherBlox Daily Observations layout. Learn more.

Left ArrowRight Arrow

40.92501, -98.34201

Hourly Observations for July 14, 2021

Temp ( °F °C ) Dew Point ( °F °C ) Humidity (%) Winds ( mph kmh ) Pressure ( in mb ) Visibility ( mi km ) Precip ( " mm )
12:53 am 00:53 Clear 75 23.9 69 20.6 82 82 SE 12 19 29.93 1014 10 16 0.00 0.00
1:53 am 01:53 Clear 75 23.9 68 20 79 79 SE 14 22 29.89 1012 10 16 0.00 0.00
2:53 am 02:53 Mostly Clear 75 23.9 66 18.9 74 74 S 14 22 29.89 1012 10 16 0.00 0.00
3:53 am 03:53 Clear 76 24.4 65 18.3 69 69 WSW 13 20 29.93 1014 10 16 0.00 0.00
4:41 am 04:41 Mostly Cloudy with Thunderstorms 74 23.3 65 18.3 74 74 SW 18 30 29.89 1012 9 14 0.00 0.00
4:53 am 04:53 Cloudy with Thunderstorms 73 22.8 64 17.8 74 74 WSW 18 30 29.92 1013 7 11 0.00 0.00
5:06 am 05:06 Cloudy with Nearby Thunderstorms 74 23.3 62 16.7 67 67 WSW 23 37 29.89 1012 7 11 0.00 0.00
5:15 am 05:15 Cloudy with Light Rain 74 23.3 62 16.7 67 67 SSW 15 24 29.86 1011 7 11 0.00 0.00
5:53 am 05:53 Mostly Cloudy with Light Rain 72 22.2 62 16.7 71 71 S 29 46 29.83 1010 7 11 0.03 0.76
6:23 am 06:23 Windy with Storms Likely 74 23.3 63 17.2 69 69 SSW 21 33 29.88 1012 10 16 0.01 0.25
6:33 am 06:33 Cloudy with Strong Thunderstorms 71 21.7 64 17.8 79 79 SW 24 39 29.91 1013 2 3 0.02 0.51
6:41 am 06:41 Cloudy with Strong Thunderstorms 71 21.7 65 18.3 81 81 S 23 37 29.86 1011 2 2 0.08 2.03
6:49 am 06:49 Windy with Storms Likely 72 22 64 18 78 78 S 24 39 29.86 1011 3 5 0.17 4.32
6:53 am 06:53 Windy with Storms Likely 72 22.2 64 17.8 76 76 S 23 37 29.89 1012 5 8 0.17 4.32
7:18 am 07:18 Cloudy with Light Rain 72 22.2 65 18.3 79 79 S 15 24 29.90 1012 7 11 0.02 0.51
7:50 am 07:50 Mostly Cloudy with Nearby Thunderstorms 72 22 66 19 83 83 SSE 17 28 29.87 1011 4 6 0.05 1.27
7:53 am 07:53 Mostly Cloudy with Nearby Thunderstorms 70 21.1 66 18.9 87 87 SSE 21 33 29.89 1012 3 5 0.05 1.27
8:01 am 08:01 Mostly Cloudy with Nearby Thunderstorms 71 21.7 66 18.9 84 84 SSE 13 20 29.88 1012 5 8 0.02 0.51
8:30 am 08:30 Partly Cloudy 71 21.7 66 18.9 84 84 SSE 14 22 29.87 1011 9 14 0.02 0.51
8:32 am 08:32 Mostly Cloudy 71 21.7 66 18.9 84 84 SSE 14 22 29.87 1011 9 14 0.02 0.51
8:53 am 08:53 Mostly Cloudy with Light Rain 72 22.2 66 18.9 82 82 SSE 15 24 29.88 1012 8 13 0.02 0.51
9:53 am 09:53 Partly Cloudy 74 23.3 65 18.3 74 74 SSE 23 37 29.84 1011 9 14 0.00 0.00
10:40 am 10:40 Sunny 78 25.6 66 18.9 67 67 SW 10 17 29.83 1010 10 16 0.00 0.00
10:53 am 10:53 Sunny 78 25.6 65 18.3 64 64 S 16 26 29.89 1012 10 16 0.00 0.00
11:53 am 11:53 Sunny 80 26.7 65 18.3 60 60 SSW 13 20 29.91 1013 9 14 0.00 0.00
12:53 pm 12:53 Sunny 82 27.8 66 18.9 58 58 WSW 15 24 29.93 1013 9 14 0.00 0.00
1:53 pm 13:53 Sunny 84 28.9 66 18.9 55 55 S 5 7 29.89 1012 9 14 0.00 0.00
2:53 pm 14:53 Sunny 84 28.9 67 19.4 57 57 WSW 7 11 29.93 1013 9 14 0.00 0.00
3:53 pm 15:53 Sunny 82 27.8 68 20 63 63 WNW 6 9 29.93 1014 9 14 0.00 0.00
4:53 pm 16:53 Mostly Sunny 84 28.9 65 18.3 53 53 Calm 29.93 1014 9 14 0.00 0.00
5:26 pm 17:26 Sunny 82 27.8 70 21.1 67 67 N 15 24 29.85 1011 10 16 0.00 0.00
5:53 pm 17:53 Sunny 81 27.2 70 21.1 69 69 N 15 24 29.92 1013 10 16 0.00 0.00
6:53 pm 18:53 Mostly Sunny 78 25.6 68 20 71 71 NNE 13 20 29.94 1014 10 16 0.00 0.00
7:53 pm 19:53 Cloudy 75 23.9 66 18.9 74 74 NE 10 17 29.96 1015 10 16 0.00 0.00
8:53 pm 20:53 Mostly Sunny 73 22.8 67 19.4 81 81 NNE 8 13 29.97 1015 10 16 0.00 0.00
9:25 pm 21:25 Cloudy with Thunderstorms 73 22.8 67 19.4 81 81 NNW 8 13 29.94 1014 10 16 0.00 0.00
9:33 pm 21:33 Cloudy with Strong Thunderstorms 72 22.2 67 19.4 84 84 NE 10 17 29.92 1013 2 3 0.02 0.51
9:40 pm 21:40 Mostly Cloudy with Thunderstorms 71 21.7 67 19.4 87 87 NNE 9 15 29.94 1014 2 3 0.18 4.57
9:44 pm 21:44 Mostly Cloudy with Nearby Thunderstorms 71 21.7 67 19.4 87 87 N 7 11 29.94 1014 4 6 0.19 4.83
9:53 pm 21:53 Cloudy with Nearby Thunderstorms 71 21.7 67 19.4 87 87 NE 6 9 29.98 1015 9 14 0.19 4.83
10:00 pm 22:00 Cloudy 71 21.7 68 20 90 90 NE 3 6 29.94 1014 7 11 0.00 0.00
10:08 pm 22:08 Cloudy with Thunderstorms 71 21.7 68 20 90 90 ENE 8 13 29.94 1014 3 5 0.01 0.25
10:23 pm 22:23 Cloudy with Nearby Thunderstorms 71 21.7 67 19.4 87 87 NNE 6 9 29.95 1014 9 14 0.05 1.27
10:43 pm 22:43 Cloudy with Thunderstorms 71 21.7 68 20 90 90 ENE 6 9 29.95 1014 8 13 0.05 1.27
10:53 pm 22:53 Cloudy with Nearby Thunderstorms 71 21.7 67 19.4 87 87 NE 7 11 29.99 1016 9 14 0.05 1.27
11:11 pm 23:11 Cloudy 71 21.7 67 19.4 87 87 NE 8 13 29.95 1014 8 13 0.00 0.00
11:53 pm 23:53 Cloudy 71 21.7 67 19.4 87 87 NE 9 15 29.99 1016 9 14 0.00 0.00

Powered by AerisWeather